Location: Wayah Bald
(35.1806°N, 83.5603°W)
Time: 22:56:31
(UTC-04:00)

Daily predictions for brighter satellites

Satellite Brightness Start Highest point End
(mag) Time Altitude Azimuth Time Altitude Azimuth Time Altitude Azimuth
Cosmos 2322 4.3 19:07:17 10° N 19:12:30 35° ENE 19:17:40 10° SE
Meteor 2-1 Rocket 4.5 19:07:33 10° SSE 19:13:07 53° E 19:18:49 10° NNE
Cosmos 1452 Rocket 4.1 19:08:21 10° N 19:13:10 35° ENE 19:17:58 10° SE
Cosmos 1315 Rocket 3.9 19:11:05 10° NNE 19:14:29 25° ENE 19:17:53 10° SE
ERS-2 2.1 19:10:51 10° SSE 19:14:29 64° ENE 19:18:09 10° N
ASTRO E2 3.4 19:17:01 10° WSW 19:20:53 48° S 19:24:45 10° ESE
Meteor 1-11 4.3 19:15:06 10° N 19:20:54 84° E 19:26:36 10° S
COSMO-SKYMED 1 2.8 19:16:43 10° NNE 19:20:57 50° E 19:25:09 10° S
CZ-2C R/B 4.0 19:16:31 10° N 19:21:01 71° WNW 19:25:25 10° SSW
Landsat 4 4.3 19:18:39 10° N 19:22:20 59° WNW 19:25:58 10° SSW
ALOS 3.2 19:19:45 10° SE 19:23:34 25° ENE 19:27:23 10° NNE
Cosmos 2219 Rocket 3.7 19:21:41 10° NNE 19:24:52 15° NE 19:28:01 10° E
Cosmos 1726 3.6 19:23:11 10° SE 19:25:40 17° E 19:28:10 10° NE
MTI 4.0 19:23:07 10° N 19:26:20 74° WNW 19:29:30 10° SSW
Iridium 4 Rocket 4.4 19:22:18 10° SE 19:27:08 33° E 19:32:14 10° NNE
Cosmos 1484 Rocket 3.8 19:26:42 10° S 19:30:19 49° W 19:33:57 10° NNW
Meteor 1-28 Rocket 4.2 19:30:10 10° N 19:33:50 50° WNW 19:37:27 10° SSW
SL-24 R/B - RUBIN 2 3.6 19:32:41 10° NNW 19:37:23 59° ENE 19:41:41 10° SE
METEOR-M 4.1 19:32:36 10° SSE 19:37:53 66° ENE 19:43:11 10° N
NOAA 12 4.4 19:34:42 10° SE 19:39:40 44° ENE 19:44:42 10° N
RESURS DK-1 2.3 19:35:39 10° NNW 19:39:46 71° ENE 19:43:52 10° SSE
MONITOR-E 4.1 19:36:58 10° SSE 19:39:59 59° ENE 19:43:02 10° N
YAOGAN 1 2.7 19:35:54 10° S 19:40:13 78° WSW 19:44:34 10° NNW
Cosmos 1703 3.3 19:37:22 10° N 19:41:18 87° W 19:45:11 10° S
Cosmos 2151 3.0 19:37:37 10° N 19:41:55 89° WSW 19:46:09 10° S
SL-16 R/B 3.9 19:37:26 10° NW 19:42:35 37° WSW 19:47:42 10° S
Cosmos 1821 Rocket 4.2 19:39:27 10° SSE 19:45:14 45° E 19:51:06 10° NNE
DELTA 2 R/B (1) 3.6 19:40:04 10° WNW 19:45:39 71° NNE 19:50:05 16° E
Atlas Centaur 2 2.7 19:42:52 10° WSW 19:47:00 40° S 19:51:48 11° ESE
Cosmos 1048 Rocket 3.9 19:42:03 10° S 19:47:07 65° ESE 19:52:11 10° NNE
Cosmos 1908 3.2 19:43:17 10° S 19:47:12 85° E 19:51:07 10° N
GRACE-2 3.7 19:48:31 10° S 19:51:04 78° W 19:53:38 10° N
Cosmos 2237 4.2 19:46:17 10° NNW 19:51:59 63° ENE 19:57:37 10° SSE
APEX 2.9 19:50:19 10° SSW 19:53:41 68° WNW 19:56:34 10° NNE
Cosmos 2058 3.4 19:50:13 10° NNW 19:54:21 62° W 19:58:25 10° S
Cosmos 158 Rocket 4.0 19:49:40 10° SSW 19:54:41 85° WNW 19:59:52 10° NNE
Cosmos 44 3.1 19:50:19 10° SSW 19:54:42 78° WNW 19:59:03 10° NNE
GRACE-1 4.2 19:52:32 10° S 19:55:04 60° W 19:57:38 10° N
H-2A R/B 3.8 19:55:43 22° E 19:56:36 24° ENE 19:59:48 10° NNE
Cosmos 1420 Rocket 4.0 19:51:23 10° NNW 19:56:41 67° ENE 20:01:55 10° SSE
Cosmos 2237 Rocket 3.8 19:55:44 10° NNE 19:59:06 16° NE 19:59:14 16° NE
Cosmos 1626 4.2 19:57:11 10° NNW 20:00:32 32° W 20:03:52 10° SSW
Cosmos 2227 Rocket 3.1 19:59:09 10° SSE 20:03:40 25° ESE 20:04:49 23° E
Aureole 2 4.5 20:02:53 10° NNW 20:06:05 77° WSW 20:09:45 10° SSE
BREEZE-M DEB (TANK) 3.7 20:05:01 10° WNW 20:06:22 15° NNW 20:07:21 12° N
Thor Agena Rocket 3.5 20:02:49 10° NNE 20:07:51 60° ESE 20:12:48 10° S
Delta 2 Rocket 2.8 20:06:24 10° W 20:10:13 85° N 20:11:17 42° E
Cosmos 2221 3.0 20:06:19 10° SSW 20:10:35 64° W 20:14:54 10° N
FALCON 9 R/B 3.8 20:14:14 10° SSW 20:14:58 11° SSW 20:15:47 10° S
Cosmos 1300 2.7 20:13:02 10° S 20:16:45 53° E 20:20:01 13° NNE
Cosmos 2123 Rocket 4.2 20:12:41 10° N 20:18:38 44° E 20:24:34 10° SSE
Cosmos 1605 Rocket 4.2 20:13:55 10° SSE 20:19:36 42° E 20:25:16 10° NNE
Cosmos 921 Rocket 4.0 20:16:38 10° NNW 20:20:55 49° W 20:25:05 10° S
Cosmos 2360 Rocket 3.3 20:15:54 10° NW 20:21:15 45° WSW 20:26:36 10° S
Cosmos 44 Rocket 4.3 20:18:25 10° SW 20:22:53 43° WNW 20:27:22 10° NNE
OAO 1 Rocket 4.3 20:20:31 10° W 20:25:49 90° SSW 20:27:39 42° E
COSMOS 2428 2.6 20:22:49 10° NNW 20:28:32 85° ENE 20:34:13 10° SSE
Hubble Space Telescope 2.5 20:26:21 10° SSW 20:29:13 19° SSE 20:29:13 19° SSE
CZ-3 Stage 3 2.9 20:29:49 10° SW 20:30:08 12° SW 20:30:08 12° SW
Cosmos 2219 3.7 20:25:46 10° SSW 20:31:27 60° WNW 20:37:08 10° NNE
Cosmos 2333 Rocket 2.5 20:26:08 10° N 20:31:39 45° ENE 20:32:29 42° E
USA 267 3.3 20:28:50 30° ENE 20:31:59 55° SE 20:38:20 10° SSW
PSLV R/B 3.8 20:31:05 10° WSW 20:33:27 48° WSW 20:33:27 48° WSW
CZ-4C R/B 2.9 20:30:58 10° SW 20:35:55 49° NW 20:41:32 10° NNE
Meteor 2-2 Rocket 4.2 20:30:27 10° S 20:36:05 62° E 20:41:39 10° NNE
FENGYUN 3A 4.2 20:32:11 10° S 20:37:28 58° W 20:42:48 10° NNW
Cosmos 2297 Rocket 2.7 20:35:46 10° S 20:39:56 39° SE 20:39:56 39° SE
FengYun 1-2 T 4.2 20:43:53 10° S 20:49:22 81° WSW 20:54:53 10° NNW
Cosmos 2082 4.1 20:43:59 10° S 20:48:11 43° SSE 20:48:11 43° SSE
NOSS 0 Rocket 3.8 20:48:18 10° NNW 20:54:25 63° ENE 20:54:41 63° E
Aureole 2 Rocket 3.5 20:50:56 10° NNW 20:54:01 50° NW 20:54:01 50° NW
Sich 1 3.5 20:55:47 10° NNW 21:00:06 58° W 21:00:48 51° SW
ALOS 4.3 20:56:57 10° SSW 21:00:52 27° W 21:04:49 10° NW
ASTRO E2 4.5 20:57:39 10° WSW 21:00:14 26° SW 21:00:14 26° SW
Cosmos 494 Rocket 4.2 21:02:21 10° SSW 21:07:24 64° WNW 21:08:26 51° NNW
Cosmos 2219 Rocket 2.3 21:03:46 10° NNW 21:09:20 70° WSW 21:10:06 62° SSW
MOS 1-B Rocket 3.9 21:12:48 69° N 21:12:48 69° N 21:18:04 10° NNW
Cosmos 1110 Rocket 4.4 21:08:03 10° NNW 21:12:12 56° NNW 21:12:12 56° NNW
Atlas Centaur 2 4.0 21:31:39 10° WSW 21:34:26 21° SW 21:34:26 21° SW
Cosmos 2237 Rocket 3.6 21:38:01 10° NNW 21:41:05 33° NW 21:41:05 33° NW
Cosmos 2227 Rocket 3.5 21:42:13 10° SW 21:46:46 37° W 21:46:46 37° W
Cosmos 2333 Rocket 4.4 22:11:17 10° NW 22:14:33 21° W 22:14:33 21° W
